Wind_Speed
10 15 13 9 5 3 2 4 6 5 3 1 2 2 2 8 12 14 16 18 18 12 7 6 5 5 4 4 5 6 8 10 12 15 16 16 18 19 21 21 23 23 22
5 16 13 7 5 3 3 5 6 5 3 1 1 1 3 6 7 9 10 13 14 15 14 13 10 5 3 3 3 4 9 10 13 12 10 12 10 11 15 16 17 18 19
20 15 7 4 4 4 3 6 6 5 3 1 1 2 2 3 3 3 4 7 10 11 11 10 9 8 6 5 4 4 5 7 9 9 10 12 12 13 14 16 18 19 21
8 7 4 5 3 3 5 5 6 5 4 3 3 2 3 1 1 4 6 8 9 10 12 14 14 13 11 10 11 11 11 11 12 13 13 14 16 17 19 20 22 23 24
10 5 0 0 3 3 5 5 4 3 5 5 5 5 6 5 7 9 10 12 13 13 14 14 12 13 14 15 15 16 17 17 19 20 21 21 22 23 24 25 26 26 25
10 9 8 6 4 4 5 6 6 5 5 8 8 9 9 9 10 11 11 12 13 14 14 14 15 15 15 16 17 18 19 21 23 24 25 25 25 26 27 29 28 29 31
15 14 15 13 11 9 7 7 8 8 8 9 10 12 13 13 12 13 12 12 13 13 14 15 17 16 16 16 17 20 22 24 24 25 25 25 26 28 29 31 32 34 36
25 22 22 19 14 15 8 6 10 11 10 10 12 13 14 15 14 13 13 14 14 14 13 15 15 14 15 16 17 18 20 21 24 27 29 31 32 31 32 34 36 39 40
32 30 26 15 2 3 1 8 3 10 10 12 15 16 14 13 13 14 15 15 16 17 17 17 18 20 20 22 22 23 23 25 27 29 31 31 30 31 33 36 39 41 43
13 8 3 11 5 11 10 5 8 8 12 16 18 19 16 12 12 13 13 14 16 17 18 21 23 24 25 25 25 26 27 29 30 32 32 32 32 33 36 39 41 42 43
14 13 16 17 9 14 12 14 17 16 15 16 19 18 14 16 16 17 16 16 17 19 22 25 27 28 29 29 29 29 29 29 30 32 31 33 35 36 38 39 39 40 41
15 15 16 14 15 21 18 18 21 19 14 11 12 10 13 15 16 18 19 20 21 23 26 29 28 28 29 30 29 31 30 30 31 32 34 36 36 37 38 39 40 40 41
15 16 19 19 17 21 22 21 22 21 19 16 15 17 19 20 21 21 22 25 28 29 30 31 31 32 32 31 33 33 33 34 35 36 38 39 39 39 39 39 38 38 38
14 16 19 20 22 24 23 21 22 23 22 22 22 24 25 24 26 27 28 30 31 32 33 34 35 35 35 35 36 37 38 38 39 40 40 38 37 37 36 35 35 36 36
18 18 18 19 22 24 24 23 24 27 26 27 28 29 29 29 31 33 35 36 36 36 37 40 40 38 39 39 40 42 43 43 43 40 36 37 38 39 39 39 39 40 40
22 23 22 23 24 26 27 27 28 28 28 29 31 31 32 33 34 36 36 37 37 38 38 38 37 38 39 40 41 42 43 42 39 38 38 40 39 38 38 37 37 37 37
25 25 25 25 27 27 28 29 28 28 30 31 32 31 31 32 32 33 35 37 38 37 37 38 39 39 40 40 39 38 37 37 38 39 39 38 37 36 35 35 35 35 34
30 29 28 28 28 29 29 30 30 30 31 32 31 31 30 31 33 36 37 37 38 38 39 40 40 39 38 36 35 34 35 36 37 37 36 36 35 34 34 34 34 33 33
30 30 31 31 32 33 33 34 34 34 33 33 32 31 32 35 36 37 36 37 38 38 39 39 38 37 36 36 36 36 37 37 37 37 38 38 39 40 40 40 38 38 36
34 31 32 33 34 35 36 36 35 33 31 30 31 34 37 37 37 37 37 36 36 37 37 37 35 34 34 35 37 39 39 40 41 43 43 43 42 42 42 42 42 41 40
28 31 34 34 32 32 33 33 33 32 31 33 34 34 34 34 34 34 35 35 35 35 34 32 34 36 37 38 39 41 43 44 44 44 44 44 45 45 44 43 42 43 43
33 30 30 30 27 28 28 29 30 32 32 32 32 32 32 32 33 35 36 36 35 34 35 37 38 40 41 42 43 44 45 45 44 43 43 42 41 42 42 42 42 43 44
31 28 25 26 26 27 27 28 28 29 30 29 29 31 32 33 35 36 34 32 34 35 36 38 39 41 42 42 42 42 41 39 39 40 40 41 41 41 42 42 42 42 43
24 26 27 27 27 26 26 26 28 25 25 28 29 30 31 32 33 32 33 34 35 36 38 40 40 40 39 39 39 39 39 38 38 37 36 37 38 40 40 40 42 42 43
26 28 28 27 28 28 25 23 23 24 28 32 32 32 31 31 32 33 32 33 35 37 37 36 37 38 39 40 39 39 39 38 38 39 40 41 41 41 41 41 41 42 42
28 26 25 27 27 24 23 24 26 30 30 29 30 32 32 31 30 33 36 36 37 38 39 39 40 40 39 39 39 39 39 40 40 41 42 42 42 43 43 42 42 41 40
Wind_Direction
307 212 213 219 234 272 267 298 302 279 284 297 59 31 82 79 77 68 63 59 57 60 46 42 62 41 17 323 285 261 249 246 244 264 265 270 277 274 271 269 278 277 282
198 188 211 194 224 249 291 273 271 278 275 297 84 139 146 103 86 65 50 44 38 36 36 40 46 46 21 345 312 285 262 263 263 261 258 269 277 276 274 280 279 272 270
166 156 181 192 271 299 286 271 259 271 268 248 124 110 210 122 89 57 31 16 8 4 8 6 359 353 350 346 334 314 286 278 276 275 282 285 287 288 288 290 290 287 283
71 121 179 217 245 264 264 256 245 256 260 254 223 222 243 279 329 333 341 339 332 332 335 334 330 322 312 301 294 289 288 286 283 281 282 282 283 283 287 289 290 290 288
353 358 235 283 193 221 248 264 261 265 279 271 271 271 271 277 288 295 302 305 308 312 315 315 314 309 302 296 291 288 284 280 278 277 278 279 282 283 285 287 288 286 284
326 303 286 231 242 244 264 271 269 261 277 289 293 301 295 291 289 290 293 298 301 306 309 311 310 306 300 295 292 290 287 286 285 285 284 285 287 286 285 282 282 283 285
291 290 277 255 249 264 257 269 271 279 283 282 289 290 294 297 295 293 293 295 301 305 305 306 304 300 292 291 291 287 286 286 283 283 283 283 282 282 280 282 282 283 280
275 269 260 244 254 257 227 236 269 268 264 275 282 281 283 287 291 295 303 303 300 298 300 300 297 297 299 298 295 288 282 278 278 279 281 281 283 282 280 277 273 273 273
299 266 260 279 328 133 202 230 306 247 263 279 283 284 285 288 295 300 302 307 304 298 298 298 295 297 298 293 292 295 292 290 288 287 286 285 282 278 275 274 275 276 276
292 312 311 353 326 333 355 356 282 310 315 296 283 280 279 279 295 298 300 305 300 297 295 300 301 300 300 298 295 292 290 288 287 287 287 288 286 282 281 279 279 279 279
329 334 322 322 324 324 334 5 354 330 305 300 295 270 273 302 304 307 306 303 302 306 306 307 303 302 304 302 299 296 293 290 290 291 292 291 288 286 284 284 285 287 287
306 310 310 306 308 321 322 335 332 331 322 305 312 318 294 299 303 299 302 304 307 307 309 310 309 306 304 301 300 302 297 297 298 293 291 290 289 288 289 289 290 291 291
286 290 298 303 306 303 307 306 311 318 314 308 305 307 305 305 302 304 307 312 312 312 314 314 312 309 306 304 303 300 296 297 298 296 295 294 293 291 292 292 290 290 290
289 289 288 300 304 303 300 301 302 305 302 298 300 299 300 302 305 307 308 311 314 315 317 313 309 307 305 302 300 299 298 297 297 298 298 298 296 295 295 295 294 292 291
296 293 296 299 299 300 301 297 297 301 298 295 294 297 303 306 308 309 309 312 312 312 309 307 304 302 302 302 301 302 302 301 300 300 299 302 301 298 297 296 296 294 292
290 291 293 294 295 297 299 300 297 295 293 290 291 293 296 299 303 305 306 309 309 306 302 299 297 298 297 298 299 299 300 301 300 300 301 302 301 300 299 298 296 296 293
286 286 287 289 290 292 294 294 293 290 289 289 292 296 298 301 303 302 303 304 301 297 295 296 298 299 300 301 304 305 305 303 302 301 302 302 301 300 298 297 297 297 296
287 288 290 291 292 291 291 289 289 287 288 292 295 296 295 296 297 297 297 297 295 295 297 300 300 299 299 303 305 303 302 303 303 302 300 299 298 298 298 297 297 297 296
286 288 290 291 290 289 289 289 289 290 292 293 295 294 292 294 294 294 293 293 293 295 297 296 295 297 300 301 301 301 301 300 299 298 298 299 298 297 296 295 294 294 292
288 287 284 282 282 282 283 284 285 287 290 291 291 293 293 291 291 290 290 293 296 295 293 295 299 301 303 302 301 301 299 297 296 295 295 295 294 293 293 292 293 291 288
290 288 285 284 281 280 282 286 288 291 291 290 289 288 288 290 291 290 291 292 292 293 297 300 300 302 302 300 298 296 296 298 300 299 298 296 295 294 293 293 291 289 286
288 287 283 279 280 286 289 289 289 291 290 291 291 292 294 294 292 291 293 296 298 300 302 303 303 302 302 302 304 304 302 301 299 299 299 299 299 298 298 296 295 292 289
285 278 277 280 282 280 281 284 284 285 286 288 291 292 291 290 291 294 297 298 298 299 299 300 300 302 304 304 303 302 303 303 303 304 305 306 305 304 302 300 297 294 291
266 268 271 275 279 285 285 281 281 283 283 289 292 293 293 292 292 295 298 297 298 299 301 303 304 306 306 304 304 304 303 303 304 304 304 305 306 305 304 302 301 299 297
268 270 273 280 283 279 276 280 285 288 290 294 296 297 297 295 295 297 299 300 301 301 303 306 305 303 304 305 305 306 307 307 307 308 310 310 309 309 308 307 305 302 300
267 274 280 280 282 279 279 285 283 287 292 296 297 295 293 296 300 301 303 304 304 304 304 305 307 308 308 308 308 307 307 306 307 308 308 308 306 305 304 303 303 303 303
Height
5856 5859 5863 5864 5864 5863 5863 5864 5865 5864 5862 5860 5859 5858 5857 5854 5851 5851 5848 5846 5844 5843 5842 5841 5840 5839 5840 5840 5840 5841 5842 5842 5844 5844 5844 5844 5843 5842 5842 5843 5842 5841 5840
5846 5855 5861 5860 5860 5861 5861 5863 5863 5863 5861 5859 5858 5858 5857 5853 5851 5850 5850 5848 5847 5845 5844 5843 5842 5841 5840 5840 5839 5839 5839 5840 5840 5840 5840 5839 5838 5838 5838 5837 5835 5834 5834
5843 5850 5858 5858 5858 5858 5859 5860 5862 5861 5860 5859 5858 5857 5856 5853 5851 5850 5849 5849 5848 5847 5846 5845 5844 5843 5841 5840 5839 5838 5838 5838 5838 5838 5837 5837 5836 5835 5833 5832 5830 5829 5827
5852 5851 5854 5855 5856 5857 5859 5859 5859 5859 5858 5857 5856 5855 5855 5852 5850 5850 5849 5848 5847 5847 5845 5844 5842 5842 5841 5840 5839 5838 5837 5836 5835 5835 5834 5832 5831 5830 5828 5826 5824 5822 5820
5857 5856 5854 5854 5854 5855 5856 5856 5855 5855 5855 5855 5854 5853 5851 5849 5849 5849 5847 5846 5845 5844 5843 5841 5840 5838 5837 5836 5835 5834 5833 5832 5831 5830 5829 5827 5826 5824 5822 5820 5818 5816 5814
5858 5859 5856 5853 5852 5854 5853 5853 5853 5852 5852 5851 5850 5849 5849 5847 5846 5845 5844 5843 5842 5841 5839 5838 5836 5836 5834 5833 5831 5830 5829 5828 5826 5824 5822 5820 5819 5817 5815 5812 5810 5807 5805
5856 5854 5855 5854 5849 5848 5848 5849 5850 5849 5848 5847 5846 5846 5846 5844 5842 5842 5840 5839 5838 5836 5835 5834 5832 5831 5830 5829 5827 5826 5824 5822 5820 5818 5816 5813 5811 5809 5807 5804 5801 5798 5795
5851 5848 5849 5847 5845 5843 5844 5845 5845 5844 5844 5843 5843 5842 5842 5841 5839 5837 5837 5836 5834 5833 5832 5830 5829 5827 5826 5824 5822 5821 5819 5817 5814 5812 5809 5807 5804 5801 5797 5794 5791 5788 5785
5843 5842 5842 5844 5840 5839 5840 5840 5840 5841 5840 5839 5838 5837 5836 5836 5834 5833 5833 5831 5829 5828 5826 5826 5825 5824 5822 5819 5816 5814 5811 5809 5805 5802 5799 5796 5792 5789 5786 5783 5780 5777 5773
5843 5842 5839 5840 5841 5839 5838 5837 5836 5836 5836 5836 5835 5834 5832 5831 5830 5828 5829 5828 5825 5824 5822 5820 5818 5816 5814 5813 5809 5806 5803 5800 5796 5792 5788 5784 5781 5778 5774 5771 5768 5765 5762
5841 5840 5840 5839 5837 5838 5835 5832 5833 5835 5834 5832 5832 5830 5829 5827 5825 5824 5822 5822 5820 5818 5816 5813 5811 5808 5804 5802 5799 5797 5793 5789 5785 5781 5777 5774 5770 5766 5763 5760 5756 5753 5750
5838 5836 5838 5836 5834 5833 5831 5829 5833 5833 5830 5829 5828 5828 5827 5825 5823 5820 5818 5815 5814 5812 5810 5806 5803 5800 5796 5793 5788 5784 5781 5778 5775 5771 5766 5762 5758 5755 5752 5749 5745 5742 5738
5834 5833 5833 5832 5832 5832 5831 5830 5829 5829 5828 5826 5824 5822 5822 5820 5819 5815 5812 5809 5806 5803 5800 5797 5793 5790 5786 5783 5779 5776 5773 5769 5764 5760 5756 5751 5747 5744 5740 5737 5734 5731 5727
5829 5829 5828 5826 5825 5825 5825 5824 5823 5822 5821 5820 5818 5817 5815 5813 5810 5807 5805 5802 5798 5794 5790 5787 5783 5780 5777 5772 5768 5765 5762 5758 5754 5749 5745 5740 5736 5732 5729 5726 5723 5719 5716
5823 5823 5822 5821 5822 5821 5820 5818 5817 5816 5814 5812 5811 5810 5807 5805 5802 5799 5796 5792 5789 5785 5782 5778 5774 5770 5766 5761 5757 5753 5750 5746 5742 5738 5734 5730 5725 5721 5717 5714 5711 5707 5704
5816 5816 5816 5816 5815 5814 5812 5811 5810 5808 5807 5805 5804 5802 5799 5796 5794 5790 5787 5783 5780 5775 5771 5767 5762 5759 5755 5752 5748 5743 5738 5734 5730 5727 5723 5719 5715 5711 5707 5703 5699 5696 5692
5809 5810 5809 5808 5807 5806 5805 5804 5802 5801 5799 5798 5795 5792 5790 5787 5783 5780 5777 5773 5769 5765 5760 5756 5752 5748 5745 5740 5736 5733 5729 5725 5721 5716 5712 5708 5704 5700 5697 5693 5689 5686 5682
5803 5802 5800 5800 5800 5798 5796 5796 5795 5793 5791 5788 5786 5783 5780 5777 5774 5770 5767 5762 5758 5753 5750 5746 5742 5738 5734 5731 5728 5724 5720 5716 5711 5707 5703 5699 5695 5691 5688 5684 5680 5677 5673
5794 5793 5792 5792 5791 5789 5788 5787 5785 5783 5781 5778 5775 5772 5770 5767 5763 5760 5755 5751 5747 5744 5741 5737 5733 5729 5725 5722 5719 5716 5712 5707 5703 5699 5694 5690 5686 5681 5678 5674 5670 5667 5663
5786 5785 5783 5782 5781 5779 5778 5776 5775 5773 5770 5767 5765 5763 5759 5756 5752 5748 5745 5742 5739 5735 5732 5728 5725 5721 5717 5713 5709 5705 5701 5696 5692 5687 5683 5679 5675 5670 5666 5663 5659 5656 5653
5776 5775 5774 5772 5770 5768 5766 5765 5763 5761 5759 5757 5754 5751 5748 5746 5743 5739 5736 5733 5729 5726 5723 5719 5715 5712 5708 5704 5699 5694 5689 5684 5680 5675 5670 5666 5662 5658 5654 5650 5646 5643 5640
5767 5766 5763 5761 5760 5759 5756 5754 5753 5751 5748 5746 5744 5740 5738 5736 5732 5729 5726 5723 5719 5716 5712 5708 5704 5700 5696 5691 5686 5681 5676 5672 5668 5663 5659 5654 5650 5645 5641 5637 5633 5629 5626
5758 5756 5754 5752 5751 5750 5749 5747 5745 5743 5741 5738 5735 5733 5730 5726 5723 5720 5718 5715 5711 5706 5702 5698 5694 5689 5685 5680 5675 5670 5666 5661 5656 5651 5646 5641 5637 5633 5629 5625 5621 5617 5613
5749 5747 5745 5744 5743 5742 5741 5739 5737 5735 5733 5731 5728 5725 5721 5718 5715 5713 5710 5705 5701 5697 5693 5689 5684 5679 5674 5670 5665 5660 5655 5650 5646 5641 5637 5632 5627 5622 5617 5613 5608 5604 5600
5741 5740 5738 5736 5734 5732 5730 5729 5727 5726 5723 5720 5717 5715 5712 5709 5706 5703 5699 5696 5692 5688 5683 5678 5673 5668 5663 5659 5654 5648 5643 5638 5634 5629 5624 5620 5615 5610 5605 5601 5597 5593 5588
5733 5731 5730 5728 5727 5724 5723 5721 5718 5716 5714 5711 5709 5706 5703 5700 5697 5693 5690 5686 5682 5677 5672 5667 5662 5657 5651 5646 5642 5637 5632 5627 5622 5618 5613 5608 5604 5599 5594 5590 5585 5580 5576